Regional Weather Roundup
Issued by NWS

Home | Current Version | Previous Version | Text Only | Print | Product List | Glossary Off
Versions: 1 2 3 4 5 6 7 8 9 10 11 12 13 14 15 16 17 18 19 20 21 22 23 24 25 26 27 28 29 30 31 32 33 34 35 36 37 38 39 40 41 42 43 44 45 46 47 48 49 50

000
ASUS43 KBIS 251159
RWRND

NORTH DAKOTA REGIONAL WEATHER ROUNDUP
NATIONAL WEATHER SERVICE BISMARCK ND
700 AM CDT SAT OCT 25 2014

NOTE: "FAIR" INDICATES FEW OR NO CLOUDS BELOW 12,000 FEET WITH NO
SIGNIFICANT WEATHER AND/OR OBSTRUCTIONS TO VISIBILITY.


NDZ001>003-009>011-017-251300-
NORTHWEST NORTH DAKOTA

CITY           SKY/WX    TMP DP  RH WIND       PRES   REMARKS
WILLISTON      MOCLDY    35  29  78 CALM      30.11S
6HR MIN TEMP:  35; 6HR MAX TEMP:  46;

MINOT          CLEAR     40  30  67 W10       30.10R
$$

NDZ018>021-031>035-040>046-251300-
SOUTHWEST NORTH DAKOTA

CITY           SKY/WX    TMP DP  RH WIND       PRES   REMARKS
BISMARCK       CLOUDY    41  32  70 CALM      30.12R
6HR MIN TEMP:  39; 6HR MAX TEMP:  49;

DICKINSON      PTCLDY    45  29  53 W6        30.10R
GARRISON         N/A     40  32  73 NW7       30.11R
6HR MIN TEMP:  38; 6HR MAX TEMP:  46;

HETTINGER ARPT MOCLDY    34  29  82 CALM      30.15S
$$

NDZ004>008-012>016-024-026-027-054-251300-
NORTHEAST NORTH DAKOTA

CITY           SKY/WX    TMP DP  RH WIND       PRES   REMARKS
GRAND FORKS    CLEAR     41  33  73 W8        30.02R
DEVILS LAKE    CLEAR     39  28  65 W12       30.05R
$$

NDZ022-023-025-028>030-036>039-047>053-251300-
SOUTHEAST NORTH DAKOTA

CITY           SKY/WX    TMP DP  RH WIND       PRES   REMARKS
FARGO          MOCLDY    42  32  67 W10       30.04S
6HR MIN TEMP:  41; 6HR MAX TEMP:  46;

$$




USA.gov is the U.S. government's official web portal to all federal, state and local government web resources and services.